Location: Ostrava
(49.8330°N, 18.2830°E)
Time: 07:52:11
(UTC+01:00)

Cosmos 2219 Rocket - Visible Passes

Search period start: 10 December 2016 00:00
Search period end: 20 December 2016 00:00
Orbit: 827 x 847 km, 71.0° (Epoch: 08 December)

Date Brightness Start Highest point End Pass type
(mag) Time Alt. Az. Time Alt. Az. Time Alt. Az.
10 Dec 4.4 04:10:03 14° N 04:10:03 14° N 04:11:03 10° NNE visible
11 Dec 4.6 03:54:12 12° N 03:54:12 12° N 03:54:44 10° NNE visible
11 Dec 4.3 05:35:56 10° NNW 05:35:59 10° NNW 05:36:43 10° N visible
12 Dec 4.8 03:38:21 10° NNE 03:38:21 10° NNE 03:38:25 10° NNE visible
12 Dec 4.4 05:20:04 10° NNW 05:20:04 10° NNW 05:20:40 10° N visible
13 Dec 4.4 05:04:11 10° N 05:04:11 10° N 05:04:31 10° N visible
14 Dec 4.5 04:48:16 10° N 04:48:16 10° N 04:48:18 10° N visible
19 Dec 4.3 06:55:06 10° N 06:58:05 14° NNE 07:01:03 10° ENE visible
